QTR4B OTHH-OBBI

Flight info

Callsign QTR4B
Flight time 0h 20m
Altitude 12000
Route TULUB M444 KINID DCT BHR
Aircraft B789/H-SDE1E2E3FGHIJ2J3J4J5M1RWXY/LB1D1

Departure

Time 2026-05-08 02:56
Airport Hamad International Airport (OTHH)

Arrival

Time 2026-05-08 03:16
Airport Bahrain International Airport (OBBI)
Time Latitude Longitude Altitude Speed Heading
2026-05-08 02:50 25.26593 51.60893 26 ft 4 kts 295°
2026-05-08 02:50 25.26606 51.60862 26 ft 5 kts 294°
2026-05-08 02:50 25.26621 51.60823 28 ft 6 kts 292°
2026-05-08 02:51 25.26638 51.60777 27 ft 7 kts 293°
2026-05-08 02:51 25.26659 51.60725 27 ft 8 kts 294°
2026-05-08 02:51 25.26682 51.60666 27 ft 9 kts 293°
2026-05-08 02:51 25.26685 51.60609 27 ft 7 kts 252°
2026-05-08 02:52 25.26664 51.60552 27 ft 8 kts 247°
2026-05-08 02:52 25.26640 51.60487 27 ft 10 kts 248°
2026-05-08 02:52 25.26611 51.60416 27 ft 10 kts 229°
2026-05-08 02:52 25.26554 51.60414 27 ft 9 kts 159°
2026-05-08 02:53 25.26495 51.60441 27 ft 10 kts 158°
2026-05-08 02:53 25.26426 51.60472 27 ft 11 kts 158°
2026-05-08 02:53 25.26350 51.60505 27 ft 12 kts 158°
2026-05-08 02:53 25.26265 51.60543 27 ft 14 kts 158°
2026-05-08 02:54 25.26170 51.60579 27 ft 14 kts 179°
2026-05-08 02:54 25.26123 51.60514 31 ft 12 kts 250°
2026-05-08 02:54 25.26092 51.60423 29 ft 13 kts 246°
2026-05-08 02:54 25.26070 51.60329 28 ft 9 kts 302°
2026-05-08 02:55 25.26120 51.60295 27 ft 11 kts 334°
2026-05-08 02:55 25.27015 51.59900 21 ft 129 kts 338°
2026-05-08 02:55 25.27650 51.59615 95 ft 159 kts 335°
2026-05-08 02:56 25.28713 51.59139 779 ft 172 kts 337°
2026-05-08 02:56 25.29908 51.58613 1354 ft 194 kts 341°
2026-05-08 02:56 25.31233 51.58040 2027 ft 216 kts 340°
2026-05-08 02:56 25.32686 51.57394 2700 ft 229 kts 340°
2026-05-08 02:57 25.34239 51.56703 3405 ft 253 kts 340°
2026-05-08 02:57 25.35917 51.55959 4103 ft 265 kts 338°
2026-05-08 02:57 25.37643 51.55191 4811 ft 276 kts 338°
2026-05-08 02:57 25.39438 51.54395 5519 ft 280 kts 338°
2026-05-08 02:58 25.41262 51.53586 6239 ft 284 kts 337°
2026-05-08 02:58 25.43106 51.52766 6930 ft 288 kts 337°
2026-05-08 02:58 25.44985 51.51933 7620 ft 292 kts 338°
2026-05-08 02:58 25.46881 51.51093 8325 ft 294 kts 339°
2026-05-08 02:59 25.48884 51.50666 9080 ft 297 kts
2026-05-08 02:59 25.50926 51.51116 9839 ft 300 kts 16°
2026-05-08 02:59 25.52940 51.51775 10536 ft 301 kts 19°
2026-05-08 02:59 25.54952 51.52474 11241 ft 302 kts 18°
2026-05-08 03:00 25.56949 51.53132 11875 ft 307 kts 17°
2026-05-08 03:00 25.58984 51.53787 11997 ft 337 kts 17°
2026-05-08 03:00 25.61320 51.54547 12011 ft 356 kts 17°
2026-05-08 03:00 25.63717 51.55334 12001 ft 363 kts 17°
2026-05-08 03:01 25.66188 51.55981 12011 ft 364 kts
2026-05-08 03:01 25.68684 51.56083 12001 ft 366 kts
2026-05-08 03:01 25.71278 51.56179 11998 ft 366 kts
2026-05-08 03:01 25.73830 51.56279 12003 ft 365 kts
2026-05-08 03:02 25.76365 51.56383 12007 ft 364 kts
2026-05-08 03:02 25.78877 51.56484 12002 ft 364 kts
2026-05-08 03:02 25.81397 51.56506 12005 ft 363 kts 354°
2026-05-08 03:02 25.83788 51.55733 12025 ft 365 kts 333°
2026-05-08 03:03 25.85861 51.54040 11884 ft 369 kts 313°
2026-05-08 03:03 25.87284 51.51726 11569 ft 368 kts 299°
2026-05-08 03:03 25.88499 51.49218 11215 ft 366 kts 297°
2026-05-08 03:03 25.89659 51.46720 10858 ft 363 kts 297°
2026-05-08 03:04 25.90850 51.44243 10510 ft 362 kts 298°
2026-05-08 03:04 25.92054 51.41797 10167 ft 361 kts 298°
2026-05-08 03:04 25.93248 51.39339 9823 ft 360 kts 297°
2026-05-08 03:04 25.94427 51.36883 9464 ft 360 kts 297°
2026-05-08 03:05 25.95593 51.34461 9082 ft 358 kts 297°
2026-05-08 03:05 25.96767 51.32036 8723 ft 355 kts 297°
2026-05-08 03:05 25.97928 51.29628 8358 ft 353 kts 297°
2026-05-08 03:05 25.99055 51.27209 7992 ft 351 kts 296°
2026-05-08 03:06 26.00170 51.24795 7642 ft 349 kts 296°
2026-05-08 03:06 26.01287 51.22409 7293 ft 347 kts 297°
2026-05-08 03:06 26.02408 51.20027 6943 ft 345 kts 297°
2026-05-08 03:06 26.03513 51.17666 6597 ft 343 kts 297°
2026-05-08 03:07 26.04609 51.15316 6266 ft 341 kts 297°
2026-05-08 03:07 26.05698 51.12980 5895 ft 338 kts 297°
2026-05-08 03:07 26.06776 51.10672 5585 ft 332 kts 298°
2026-05-08 03:07 26.07523 51.09073 5408 ft 320 kts 298°
2026-05-08 03:08 26.08530 51.06915 5156 ft 305 kts 298°
2026-05-08 03:08 26.09470 51.04895 4922 ft 290 kts 299°
2026-05-08 03:08 26.10378 51.02947 4669 ft 277 kts 299°
2026-05-08 03:08 26.11249 51.01064 4395 ft 271 kts 297°
2026-05-08 03:09 26.11981 50.99146 4141 ft 265 kts 298°
2026-05-08 03:09 26.12769 50.97342 3897 ft 255 kts 300°
2026-05-08 03:09 26.13522 50.95579 3642 ft 249 kts 298°
2026-05-08 03:09 26.14231 50.93843 3393 ft 245 kts 298°
2026-05-08 03:10 26.14693 50.92023 3147 ft 254 kts 275°
2026-05-08 03:10 26.14468 50.90060 3013 ft 253 kts 265°
2026-05-08 03:10 26.14245 50.88189 3002 ft 235 kts 275°
2026-05-08 03:10 26.14382 50.86411 3005 ft 227 kts 286°
2026-05-08 03:11 26.14802 50.84749 3005 ft 220 kts 299°
2026-05-08 03:11 26.15546 50.83283 3012 ft 216 kts 309°
2026-05-08 03:11 26.16402 50.81907 3014 ft 216 kts 310°
2026-05-08 03:11 26.17236 50.80507 3014 ft 218 kts 308°
2026-05-08 03:12 26.18058 50.79072 2808 ft 217 kts 308°
2026-05-08 03:12 26.18852 50.77671 2545 ft 213 kts 309°
2026-05-08 03:12 26.19614 50.76344 2297 ft 193 kts 310°
2026-05-08 03:12 26.20301 50.75152 2062 ft 176 kts 310°
2026-05-08 03:13 26.20934 50.74050 1830 ft 162 kts 311°
2026-05-08 03:13 26.21527 50.73021 1644 ft 155 kts 312°
2026-05-08 03:13 26.22107 50.72026 1443 ft 149 kts 311°
2026-05-08 03:13 26.22670 50.71047 1250 ft 152 kts 311°
2026-05-08 03:14 26.23250 50.70046 1053 ft 154 kts 311°
2026-05-08 03:14 26.23830 50.69042 838 ft 154 kts 310°
2026-05-08 03:14 26.24296 50.68226 692 ft 146 kts 308°
2026-05-08 03:14 26.24830 50.67312 492 ft 136 kts 304°
2026-05-08 03:15 26.25307 50.66467 331 ft 126 kts 303°
2026-05-08 03:15 26.25775 50.65637 113 ft 131 kts 301°
2026-05-08 03:15 26.26262 50.64782 44 ft 130 kts 303°
2026-05-08 03:15 26.26734 50.63986 30 ft 112 kts 300°
2026-05-08 03:16 26.27069 50.63393 28 ft 66 kts 303°
2026-05-08 03:16 26.27236 50.63082 27 ft 33 kts 289°
2026-05-08 03:16 26.27257 50.62898 26 ft 18 kts 276°
2026-05-08 03:16 26.27200 50.62843 30 ft 9 kts 157°
2026-05-08 03:17 26.27161 50.62891 29 ft 9 kts 124°
2026-05-08 03:17 26.27110 50.62906 28 ft 8 kts 195°
2026-05-08 03:17 26.27058 50.62884 28 ft 8 kts 184°
2026-05-08 03:17 26.27020 50.62912 28 ft 7 kts 124°
2026-05-08 03:18 26.26991 50.62961 26 ft 8 kts 122°
2026-05-08 03:18 26.26954 50.62980 27 ft 5 kts 191°
2026-05-08 03:18 26.26919 50.62960 30 ft 6 kts 213°
2026-05-08 03:18 26.26892 50.62941 29 ft 0 kts 212°
2026-05-08 03:19 26.26891 50.62940 29 ft 0 kts 212°